Regional Weather Roundup
Issued by NWS

Home | Current Version | Previous Version | Text Only | Print | Product List | Glossary Off
Versions: 1 2 3 4 5 6 7 8 9 10 11 12 13 14 15 16 17 18 19 20 21 22 23 24 25 26 27 28 29 30 31 32 33 34 35 36 37 38 39 40 41 42 43 44 45 46 47 48 49 50

000
ASUS43 KMKX 292321
RWRWI

WISCONSIN REGIONAL WEATHER ROUNDUP
NATIONAL WEATHER SERVICE MILWAUKEE/SULLIVAN WI
600 PM CDT THU SEP 29 2016

NOTE: "FAIR" INDICATES FEW OR NO CLOUDS BELOW 12,000 FEET WITH NO
SIGNIFICANT WEATHER AND/OR OBSTRUCTIONS TO VISIBILITY.

WIZ001-002-006>008-014>016-023>028-300000-
NORTHWEST WISCONSIN

CITY           SKY/WX    TMP DP  RH WIND       PRES   REMARKS
SUPERIOR ARPT  CLEAR     55  52  87 NE9       30.47S
ASHLAND        PTCLDY    57  51  80 E14       30.48S
HAYWARD        CLEAR     60  51  72 NE14      30.44S
SIREN          CLEAR     64  49  59 NE5       30.42F
CUMBERLAND     CLEAR     63  48  59 N7        30.41S
RICE LAKE      CLEAR     67  51  56 N8        30.41F
CHETEK         NOT AVBL
LADYSMITH      CLEAR     66  53  61 N6        30.42S
EAU CLAIRE     CLEAR     69  51  52 N3        30.37S
MENOMONIE      CLEAR     70  50  48 N6        30.38F
NEW RICHMOND   CLEAR     66  50  55 N7        30.40F
OSCEOLA        CLEAR     66  51  58 N6        30.43S
$$

WIZ003>005-009-010-017-018-300000-
NORTH CENTRAL WISCONSIN

CITY           SKY/WX    TMP DP  RH WIND       PRES   REMARKS
MANITOWISH WTR NOT AVBL
ARBOR VITAE    CLEAR     62  55  76 N8        30.44R
WOODRUFF       CLEAR     62  55  76 N8        30.44R
RHINELANDER    CLEAR     64  55  72 N7        30.42R
EAGLE RIVER    CLEAR     61  52  72 N10       30.43R
LAND O LAKES   PTCLDY    60  53  77 N8        30.46S
PHILLIPS       PTCLDY    64  53  68 NE8       30.41S
TOMAHAWK       CLEAR     64  52  64 N5        30.41R
MEDFORD        CLEAR     65  51  61 N6        30.39R
MERRILL        PTCLDY    67  53  61 NE3       30.39S
$$

WIZ029-030-035-036-043>047-300000-
CENTRAL WISCONSIN

CITY           SKY/WX    TMP DP  RH WIND       PRES   REMARKS
WAUSAU         CLEAR     68  50  52 NE7       30.36S
MOSINEE        PTCLDY    66  52  59 NE6       30.38R
MARSHFIELD     CLEAR     69  48  47 NE7       30.36S
STEVENS POINT  CLEAR     66  49  54 NE8       30.36S
WAUPACA        CLEAR     70  46  42 NE5       30.34S
WAUTOMA        CLEAR     69  48  47 NE8G16    30.33S
WISC RAPIDS    CLEAR     70  49  47 E7G17     30.36S
CAMP DOUGLAS   CLEAR     68  51  53 NE7       30.33S
$$

WIZ011>013-019>022-031-037>040-048>050-300000-
NORTHEAST WISCONSIN

CITY           SKY/WX    TMP DP  RH WIND       PRES   REMARKS
ANTIGO         CLEAR     64  52  64 CALM      30.39S
SHAWANO        CLEAR     69  50  49 NE8       30.36R
OCONTO         NOT AVBL
STURGEON BAY   CLEAR     65  55  70 NE13G21   30.35S
GREEN BAY      CLEAR     65  54  67 NE16G26   30.34R
MANITOWOC      CLOUDY    63  57  81 MISG      30.32S
APPLETON       PTCLDY    66  41  39 NE15G23   30.32S
CLINTONVILLE   CLEAR     68  45  42 NE6       30.34S
OSHKOSH        CLEAR     66  50  56 N16       30.31S
$$

WIZ032>034-041-042-053>061-300000-
SOUTHWEST WISCONSIN

CITY           SKY/WX    TMP DP  RH WIND       PRES   REMARKS
LA CROSSE      CLEAR     72  52  49 N7        30.33S
SPARTA         CLEAR     69  53  55 N5        30.34S
VIROQUA        CLEAR     68  50  52 NE9       30.33S
BOSCOBEL       CLEAR     73  46  38 NE7       30.30R
PRAIRIE DU CHI CLEAR     71  46  41 N10       30.29S
PLATTEVILLE    CLEAR     70  50  50 NE14      30.29R
$$

WIZ056-057-062-063-064-067-068-300000-
SOUTH CENTRAL WISCONSIN

CITY           SKY/WX    TMP DP  RH WIND       PRES   REMARKS
REEDSBURG      NOT AVBL
BARABOO/DELLS  CLEAR     67  40  36 NE12      30.31S
LONE ROCK      CLEAR     69  48  47 NE8       30.30R
MINERAL POINT  CLEAR     70  46  43 NE7       30.29R
MADISON        PTCLDY    67  52  58 NE16G23   30.28S
MIDDLETON      PTCLDY    69  52  54 NE12      30.29R
WATERTOWN      PTCLDY    66  51  57 NE13G22   30.28R
MONROE         PTCLDY    66  50  55 NE14G25   30.27R
JANESVILLE     MOCLDY    66  54  63 NE13      30.27
$$

WIZ051-052-058>065-066-070>072-300000-
SOUTHEAST WISCONSIN

CITY           SKY/WX    TMP DP  RH WIND       PRES   REMARKS
MILWAUKEE      MOCLDY    63  58  83 N16G28    30.27S
WAUKESHA       MOCLDY    63  54  72 NE13G20   30.29R
MILWAUKEE/TIMM CLOUDY    63  54  72 N12G25    30.29R
RACINE         LGT RAIN  59  57  93 N12       30.28R
BURLINGTON     PTCLDY    63  53  69 N12G17    30.26S
KENOSHA        CLOUDY    62  58  86 NE14G23   30.26R
FOND DU LAC    CLEAR     66  55  67 NE12      30.31S
SHEBOYGAN      PTCLDY    63  56  78 NE22G30   30.30R
WEST BEND      MOCLDY    70  61  73 NE14G22   30.30R
JUNEAU         CLEAR     66  49  54 N16G23    30.30R
$$

LSZ147-162-300000-
LAKE SUPERIOR

STATION/POSITION TIME  TEMP    WIND        PRES    WAVE
                       AIR SEA DIR/SP/G            HT/PER
                 (UTC) (F)     (DEG/KT/KT) (MB)    (FT/S)
W MID LAKE BUOY  2250   55 55   80/  8/ 10 1032.2F   1/ 5
DEVILS ISLAND    2300   54      90/ 11/ 12 1032.5F
SAXON HARBOR     2200   58      40/  9/ 11 1031.5F
$$

LMZ867-665-643>646-300000-
LAKE MICHIGAN

STATION/POSITION TIME  TEMP    WIND        PRES    WAVE
                       AIR SEA DIR/SP/G            HT/PER
                 (UTC) (F)     (DEG/KT/KT) (MB)    (FT/S)
CHAMBERS ISLAND  2200   65      20/  9/ 11 1027.4S
S GREEN BAY BUOY 2300   64 63   50/ 12/ 14 1027.0R
N MID LAKE BUOY  2250   66 65   60/ 16/ 19 1027.5S   3/ 4
NORTHPORT PIER   2200   68      40/ 10/ 14 1027.8R
SISTER BAY       2208   74      70/  8/ 12   N/A
KEWAUNEE LAKESHO 2200   63      20/  8/ 14 1026.4F
SHEBOYGAN LAKESH 2300   61      10/ 20/ 23 1025.9R
PORT WASHINGTON  2200   65      30/ 12/ 21 1025.7S
ATWATER BUOY     2300   57 53  360/ 12/ 16 1024.8R
MILWAUKEE LAKESH 2310   61     350/ 18/ 24   N/A
S MID LAKE BUOY  2250   65 69   70/ 19/ 23 1023.0R   6/ 6
KENOSHA   LAKESH 2300   59     360/ 15/ 17 1024.0S
$$

TC  - TEMPERATURE IN CELSIUS
VSB - VISIBILITY IN STATUTE MILES
WCI - WIND CHILL INDEX
HX  - HEAT INDEX





USA.gov is the U.S. government's official web portal to all federal, state and local government web resources and services.